Location: Nitra
(0.0000°N, 18.0833°E)
Time: 05:20:15
(UTC+01:00)

Cosmos 1408 - Pass Details

Date: 24 January 2021
Orbit: 469 x 491 km, 82.6° (Epoch: 04 March)

Event Time Altitude Azimuth Distance (km) Brightness Sun altitude
Rises 19:08:39 0° 180° (S) 2,541 6.5 -16.2°
Reaches altitude 10° 19:10:46 10° 177° (S) 1,655 5.5 -16.7°
Maximum altitude 19:14:22 69° 94° (E) 513 2.4 -17.6°
Enters shadow 19:15:51 32° 19° (NNE) 831 3.4 -17.9°
